Probability
0 0 0 0 0 0 0 0 0 0 3 0 0 0 0 0 0 0 0 0 0 0 0 0 0 0 0 0 0 0 0 0 0 0 3 3 3 3 13 29 32 29 29 32
0 0 0 0 0 0 0 0 3 0 3 3 3 3 0 0 0 0 0 0 0 0 0 0 0 0 0 0 0 0 0 0 0 0 0 0 3 0 0 3 6 16 19 16
0 0 0 0 0 0 0 0 3 0 0 0 6 6 3 0 0 0 0 0 0 0 0 0 0 0 0 0 0 0 0 0 0 0 0 0 0 0 0 0 0 0 3 6
0 0 0 0 0 0 0 0 0 0 0 0 0 0 6 3 0 0 0 0 0 0 0 0 0 0 0 0 0 0 0 0 0 0 0 0 0 0 0 0 0 0 0 0
0 0 0 0 0 0 0 0 0 0 0 0 0 0 0 0 3 0 0 0 0 0 0 0 0 0 0 0 0 0 0 0 0 0 0 0 0 0 0 0 0 0 0 0
0 0 0 0 0 0 0 0 0 0 0 0 0 0 0 0 0 0 0 0 0 0 0 0 0 0 0 0 0 0 0 0 0 0 0 0 0 0 0 0 0 0 0 0
0 0 0 0 0 0 0 0 0 0 0 0 0 0 0 0 0 0 0 0 0 0 0 0 0 0 0 0 0 0 0 0 0 0 0 0 0 0 0 0 0 0 0 0
0 0 0 0 0 0 0 0 0 0 0 0 0 0 0 0 0 0 0 0 0 0 0 0 0 0 0 0 0 0 0 0 0 0 0 0 0 0 0 0 0 0 0 0
0 0 0 0 0 0 0 0 0 0 0 0 0 0 0 0 0 0 0 0 0 0 0 0 0 0 0 0 0 0 0 0 0 0 0 0 0 0 0 0 0 0 0 0
0 0 0 0 0 0 0 0 0 0 0 0 0 0 0 0 0 0 0 0 0 0 0 0 0 0 0 0 0 0 0 0 0 0 0 0 0 0 0 0 0 0 0 0
0 0 0 0 0 0 0 0 0 0 0 0 0 0 0 0 0 0 0 0 0 0 0 0 0 0 0 0 0 0 0 0 0 0 0 0 0 0 0 0 0 0 0 0
0 0 0 0 0 0 0 0 0 0 0 0 0 0 0 0 0 0 0 0 0 0 0 0 0 0 0 0 0 0 0 0 0 0 0 0 0 0 0 0 0 0 0 0
0 0 0 0 0 0 0 0 0 0 0 0 0 0 0 0 0 0 0 0 0 0 0 0 0 0 0 0 0 0 0 0 0 0 0 0 0 0 0 0 0 0 0 0
0 0 0 0 0 0 0 0 0 0 0 0 0 0 0 0 0 0 0 0 0 0 0 0 0 0 0 0 0 0 0 0 0 0 0 0 0 0 0 0 0 0 0 0
0 0 0 0 0 0 0 0 0 0 0 0 0 0 0 0 0 0 0 0 0 0 0 0 0 0 0 0 0 0 0 0 0 0 0 0 0 0 0 0 0 0 0 0
0 0 0 0 0 0 0 0 0 0 0 0 0 0 0 0 0 0 0 0 0 0 0 0 0 0 0 0 0 0 0 0 0 0 0 0 0 0 0 0 0 0 0 0
0 0 0 0 0 0 0 0 0 0 0 0 0 0 0 0 0 0 0 0 0 0 0 0 0 0 0 0 0 0 0 0 0 0 0 0 0 0 0 0 0 0 0 0
0 0 0 0 0 0 0 0 0 0 0 0 0 0 0 0 0 0 0 0 0 0 0 0 0 0 0 0 0 0 0 0 0 0 0 0 0 0 0 0 0 0 0 0
0 0 0 0 0 0 0 0 0 0 0 0 0 0 0 0 0 0 0 0 0 0 0 0 0 0 0 0 0 0 0 0 0 0 0 0 0 0 0 0 0 0 0 0
0 0 0 0 0 0 0 0 0 0 0 0 0 0 0 0 0 0 0 0 0 0 0 0 0 0 0 0 0 0 0 0 0 0 0 0 0 0 0 0 0 0 0 0
0 0 0 0 0 0 0 0 0 0 0 0 0 0 0 0 0 0 0 0 0 0 0 0 0 0 0 0 0 0 0 0 0 0 0 0 0 0 0 0 0 0 0 0
0 0 0 0 0 0 0 0 0 0 0 0 0 0 0 0 0 0 0 0 0 0 0 0 0 0 0 0 0 0 0 0 0 0 0 0 0 0 0 0 0 0 0 0
0 0 0 0 0 0 0 0 0 0 0 0 0 0 0 0 0 0 0 0 0 0 0 0 0 0 0 0 0 0 0 0 0 0 0 0 0 0 0 0 0 0 0 0
0 0 0 0 0 0 0 0 0 0 0 0 0 0 0 0 0 0 0 0 0 0 0 0 0 0 0 0 0 0 0 0 0 0 0 0 0 0 0 0 0 0 0 0
0 0 0 0 0 0 0 0 0 0 0 0 0 0 0 0 0 0 0 0 0 0 0 0 0 0 0 0 0 0 0 0 0 0 0 0 0 0 0 0 0 0 0 0
0 0 0 0 0 0 0 0 0 0 0 0 0 0 0 0 0 0 0 0 0 0 0 0 0 0 0 0 0 0 0 0 0 0 0 0 0 0 0 0 0 0 0 0
Height
5864 5865 5864 5864 5863 5863 5862 5862 5861 5861 5860 5860 5860 5860 5860 5860 5859 5858 5857 5856 5854 5852 5849 5847 5844 5841 5837 5835 5832 5829 5825 5822 5818 5813 5808 5802 5796 5792 5790 5791 5794 5797 5799 5801
5862 5862 5862 5861 5861 5860 5860 5859 5858 5858 5857 5857 5856 5857 5857 5856 5855 5854 5852 5851 5848 5846 5843 5840 5837 5833 5830 5827 5824 5822 5818 5815 5811 5807 5803 5798 5795 5792 5789 5789 5790 5791 5793 5794
5859 5860 5859 5859 5859 5859 5858 5857 5856 5855 5854 5853 5854 5854 5853 5852 5850 5849 5847 5844 5841 5838 5835 5831 5828 5825 5822 5819 5816 5813 5810 5807 5804 5801 5797 5794 5792 5790 5788 5788 5787 5787 5788 5788
5857 5857 5857 5858 5857 5857 5856 5855 5854 5853 5852 5851 5851 5850 5849 5847 5845 5843 5840 5837 5834 5830 5826 5823 5820 5817 5814 5811 5808 5805 5802 5799 5796 5794 5791 5789 5787 5785 5784 5783 5783 5782 5782 5782
5855 5855 5856 5856 5856 5855 5855 5854 5853 5852 5851 5850 5849 5848 5847 5843 5841 5838 5835 5831 5828 5825 5821 5817 5814 5810 5807 5804 5800 5797 5793 5790 5787 5784 5782 5780 5779 5777 5776 5776 5775 5774 5774 5774
5855 5855 5855 5855 5855 5854 5854 5853 5852 5851 5850 5849 5848 5846 5843 5840 5837 5834 5830 5827 5823 5819 5815 5811 5807 5803 5799 5795 5791 5787 5783 5780 5776 5773 5770 5768 5767 5766 5765 5764 5764 5764 5764 5764
5855 5855 5854 5854 5854 5853 5853 5852 5851 5850 5849 5848 5845 5843 5840 5836 5833 5829 5825 5822 5818 5813 5809 5804 5800 5795 5790 5786 5781 5776 5772 5768 5764 5760 5757 5755 5753 5751 5750 5750 5750 5750 5750 5751
5855 5855 5854 5853 5852 5852 5850 5850 5849 5848 5846 5844 5842 5839 5836 5832 5828 5824 5820 5816 5811 5806 5801 5796 5791 5786 5780 5775 5770 5765 5760 5756 5752 5748 5744 5740 5737 5735 5734 5733 5733 5733 5734 5735
5855 5854 5853 5851 5850 5850 5848 5846 5846 5844 5841 5839 5837 5835 5831 5827 5823 5818 5814 5809 5803 5798 5792 5786 5780 5774 5769 5763 5758 5753 5747 5743 5738 5733 5729 5725 5721 5718 5716 5714 5713 5713 5714 5716
5854 5853 5852 5850 5849 5847 5846 5844 5842 5840 5837 5834 5833 5830 5827 5822 5817 5812 5806 5800 5794 5788 5781 5774 5767 5760 5753 5747 5741 5735 5731 5726 5722 5717 5713 5708 5704 5699 5696 5694 5692 5692 5693 5694
5853 5852 5850 5848 5846 5844 5843 5841 5838 5836 5834 5831 5827 5827 5821 5815 5810 5804 5798 5791 5784 5777 5769 5761 5753 5745 5738 5730 5724 5718 5713 5708 5703 5698 5693 5688 5684 5679 5676 5673 5670 5668 5668 5670
5852 5850 5847 5846 5844 5842 5840 5838 5835 5834 5831 5827 5824 5823 5814 5808 5802 5796 5790 5782 5774 5766 5758 5749 5741 5733 5726 5718 5712 5705 5698 5692 5686 5680 5674 5669 5663 5658 5654 5651 5648 5646 5645 5645
5851 5849 5846 5844 5844 5841 5837 5835 5832 5831 5828 5824 5820 5818 5809 5803 5796 5789 5782 5774 5767 5758 5750 5741 5733 5724 5716 5709 5701 5694 5686 5678 5670 5663 5656 5650 5644 5639 5634 5629 5627 5625 5624 5623
5850 5847 5846 5844 5841 5838 5836 5833 5831 5828 5824 5820 5816 5811 5805 5798 5791 5784 5776 5769 5760 5751 5742 5733 5724 5715 5707 5699 5691 5683 5674 5665 5656 5647 5639 5631 5624 5618 5614 5609 5606 5604 5603 5604
5848 5846 5844 5842 5840 5837 5834 5831 5828 5825 5821 5816 5812 5806 5800 5793 5786 5778 5770 5761 5752 5743 5733 5724 5714 5706 5698 5690 5681 5672 5662 5652 5641 5631 5621 5612 5604 5597 5593 5589 5586 5585 5584 5585
5847 5845 5843 5841 5838 5835 5832 5829 5825 5822 5817 5813 5807 5802 5795 5787 5778 5770 5762 5753 5744 5734 5725 5715 5706 5698 5689 5681 5671 5661 5650 5638 5627 5615 5604 5594 5584 5577 5571 5567 5565 5564 5565 5567
5846 5844 5842 5839 5836 5834 5830 5826 5822 5818 5814 5808 5802 5798 5790 5783 5773 5763 5755 5746 5735 5726 5716 5707 5698 5689 5680 5671 5661 5650 5638 5625 5612 5599 5587 5576 5565 5557 5550 5546 5544 5544 5545 5548
5845 5842 5840 5837 5835 5830 5829 5823 5819 5815 5810 5804 5798 5791 5784 5777 5768 5756 5746 5737 5727 5718 5708 5699 5689 5680 5671 5661 5650 5638 5625 5612 5598 5584 5571 5559 5548 5539 5531 5525 5523 5523 5525 5528
5843 5840 5837 5834 5830 5826 5823 5818 5814 5810 5806 5800 5793 5786 5778 5771 5764 5754 5743 5732 5721 5710 5700 5690 5681 5671 5662 5652 5640 5627 5614 5599 5584 5570 5556 5543 5530 5520 5512 5507 5504 5504 5506 5510
5840 5838 5834 5830 5826 5822 5821 5815 5810 5806 5801 5795 5787 5780 5772 5763 5756 5749 5737 5726 5714 5703 5692 5683 5673 5664 5654 5643 5631 5617 5603 5588 5573 5557 5543 5529 5515 5504 5496 5491 5488 5488 5490 5494
5837 5834 5830 5826 5823 5820 5817 5811 5807 5802 5797 5789 5782 5775 5767 5757 5748 5738 5728 5717 5706 5695 5685 5676 5666 5657 5647 5635 5623 5609 5594 5578 5562 5547 5532 5518 5505 5493 5485 5479 5476 5475 5477 5481
5833 5830 5826 5823 5820 5818 5813 5808 5804 5799 5792 5785 5778 5771 5763 5754 5744 5733 5723 5712 5701 5690 5680 5670 5661 5651 5640 5628 5616 5602 5587 5571 5555 5540 5525 5511 5498 5486 5477 5471 5467 5466 5467 5470
5829 5826 5822 5820 5818 5813 5808 5804 5799 5793 5787 5781 5774 5766 5758 5749 5739 5728 5718 5707 5696 5685 5675 5665 5655 5645 5634 5622 5610 5596 5581 5566 5551 5536 5521 5507 5494 5482 5472 5466 5461 5459 5460 5462
5825 5822 5819 5815 5812 5809 5804 5800 5794 5788 5782 5776 5768 5761 5752 5743 5733 5723 5713 5703 5693 5682 5671 5660 5650 5640 5630 5618 5605 5591 5577 5562 5547 5533 5519 5505 5493 5481 5471 5464 5459 5456 5455 5456
5820 5817 5814 5811 5808 5804 5800 5795 5789 5783 5777 5770 5763 5755 5746 5738 5728 5718 5709 5699 5689 5678 5667 5655 5645 5635 5625 5614 5602 5588 5574 5560 5546 5532 5519 5506 5494 5483 5474 5466 5460 5456 5455 5455
5815 5813 5810 5807 5803 5799 5795 5790 5784 5778 5772 5765 5758 5750 5741 5733 5724 5715 5705 5695 5685 5674 5663 5652 5642 5632 5622 5611 5599 5586 5573 5559 5546 5533 5521 5509 5497 5487 5478 5470 5464 5460 5457 5456
Wind_Speed
14 15 16 17 17 17 17 18 20 21 22 22 21 18 17 18 21 24 27 29 32 34 36 38 40 42 43 43 41 39 38 36 36 36 36 34 29 23 17 18 22 25 27 28
12 13 13 14 15 14 15 16 18 20 20 21 21 20 20 21 23 26 29 32 35 37 39 41 43 43 42 42 41 39 38 36 36 37 36 34 29 24 21 19 19 21 25 27
8 10 9 10 11 11 13 14 15 16 17 18 20 20 22 25 28 30 32 35 37 39 41 42 41 41 41 40 40 40 39 39 38 38 36 34 32 29 24 21 21 22 24 27
5 5 5 7 9 9 9 10 10 12 13 14 15 16 19 22 25 28 29 31 32 32 34 34 35 36 38 39 40 41 41 41 40 39 38 36 34 31 29 27 27 27 27 29
2 3 3 6 7 7 6 6 7 7 8 10 11 14 15 19 21 23 25 27 28 30 31 31 33 35 36 39 41 42 43 43 43 42 41 40 38 36 34 33 33 32 31 31
1 2 4 6 6 6 6 6 6 6 6 8 11 13 16 18 21 23 25 27 29 31 32 33 35 36 38 40 41 43 43 44 44 45 44 43 43 42 41 40 38 38 38 37
1 2 4 5 6 7 7 7 7 7 8 10 13 15 17 19 22 25 27 29 31 32 33 34 36 37 39 40 42 43 44 44 45 46 46 47 47 47 47 46 46 45 45 44
1 2 4 6 8 9 9 10 11 12 12 14 16 18 20 22 24 27 29 31 33 34 35 36 37 38 39 40 41 43 44 44 45 46 47 48 49 50 51 52 52 52 51 51
3 4 6 8 9 10 11 12 14 16 17 19 19 21 22 24 27 30 32 34 35 37 38 40 41 42 42 43 43 43 43 43 43 43 44 46 49 51 53 55 56 56 57 57
6 7 8 9 11 11 12 14 16 17 19 21 22 22 24 26 30 33 36 37 39 41 43 44 45 46 47 47 46 44 42 40 40 41 42 43 45 47 50 54 58 60 61 62
8 10 10 11 11 12 14 15 17 18 19 21 23 25 27 31 34 36 38 40 43 45 46 48 49 50 50 49 48 47 46 47 48 48 48 48 48 47 47 48 51 56 61 64
12 13 13 12 12 12 14 16 17 19 20 22 25 27 31 34 36 38 40 43 45 48 50 50 51 51 50 49 48 49 51 52 53 54 54 54 53 51 50 48 48 50 53 58
13 13 13 12 12 13 15 16 17 19 20 23 26 29 32 35 37 39 42 45 46 49 49 50 51 49 48 47 48 50 52 54 56 58 58 57 55 54 52 50 49 48 49 51
14 13 12 11 11 12 13 15 18 20 22 25 28 30 32 35 37 40 42 45 47 48 49 49 48 46 45 47 48 51 53 56 58 59 60 60 58 56 53 51 49 47 46 47
15 14 13 12 12 13 15 17 20 22 25 27 29 31 33 36 38 41 43 45 47 47 48 47 45 44 45 47 49 52 55 57 59 61 61 61 60 57 54 51 49 46 45 45
15 15 15 14 15 16 18 21 22 24 26 28 30 32 35 37 40 43 45 47 47 48 47 45 43 43 44 47 50 53 56 58 60 61 62 61 60 58 54 50 47 45 45 45
15 16 16 16 16 17 20 22 24 25 27 30 32 34 36 38 41 45 46 47 48 48 46 44 42 43 45 48 51 54 58 60 61 62 61 60 58 55 52 49 45 44 44 46
14 15 17 17 18 20 22 24 25 26 28 31 34 36 38 40 42 46 48 49 49 47 45 42 42 43 47 50 53 57 59 61 62 61 61 59 56 53 50 47 44 42 42 44
14 16 18 19 21 22 24 26 27 29 30 33 36 39 41 41 41 44 46 48 48 47 45 43 43 45 48 51 54 58 60 61 61 61 60 57 55 51 47 43 40 38 38 39
16 17 20 22 23 25 26 27 29 31 32 35 38 40 43 44 45 45 46 48 49 48 46 45 45 46 49 52 55 58 60 60 60 59 57 55 51 46 41 36 34 33 33 35
17 19 21 23 23 24 26 28 31 33 35 37 39 41 44 46 48 49 49 51 52 50 48 46 45 47 49 52 56 57 59 59 59 57 55 52 48 43 37 32 28 27 27 31
19 21 22 23 23 25 26 29 31 32 34 36 39 41 43 45 47 49 49 51 52 51 48 46 45 46 49 53 56 57 58 58 56 55 52 49 46 40 34 28 23 22 22 26
20 21 22 22 23 25 27 29 31 33 34 37 39 41 43 45 47 49 50 50 52 52 49 46 45 46 49 52 55 56 57 55 53 52 50 47 44 38 32 26 20 17 18 21
20 21 21 22 23 25 27 29 31 33 35 37 40 42 44 46 48 50 50 51 51 52 50 47 45 45 47 50 53 55 55 53 51 51 48 46 42 37 31 24 18 13 11 13
20 20 21 22 24 26 28 30 32 34 36 38 40 43 44 46 48 50 50 51 51 52 50 47 45 44 46 48 51 53 53 51 50 49 47 44 41 37 31 25 19 13 7 6
20 20 22 23 25 27 29 31 33 35 36 38 40 43 44 46 47 49 50 51 51 51 51 47 44 43 44 47 49 50 51 49 48 47 45 42 40 36 32 27 21 15 9 3
Wind_Direction
279 279 280 280 277 271 268 267 267 266 265 263 263 267 270 269 267 269 274 279 282 284 287 290 293 295 297 300 302 304 305 307 310 314 317 318 316 305 280 260 250 244 244 247
280 285 284 281 277 273 273 274 275 274 274 272 270 269 270 271 273 276 279 281 282 283 285 288 290 292 294 295 298 299 301 303 306 310 314 316 316 311 295 278 266 261 253 251
291 290 286 277 273 275 277 283 287 288 288 284 282 279 276 275 277 280 282 285 285 286 287 287 287 290 292 294 296 298 300 301 304 306 308 310 309 305 300 288 280 271 266 263
288 276 265 264 270 278 284 296 300 297 296 295 293 290 286 286 287 287 289 290 290 292 291 288 288 290 292 294 296 297 298 299 300 301 301 301 299 297 292 285 280 275 269 264
282 241 252 271 278 289 304 313 317 314 306 302 301 298 292 289 290 291 294 296 296 299 299 296 294 295 296 296 297 298 297 297 297 296 295 294 291 288 284 280 275 271 267 263
297 245 257 279 291 305 320 336 337 328 315 301 301 295 292 291 294 296 298 301 303 304 305 304 302 301 301 300 299 298 297 295 294 293 291 288 285 282 278 275 270 267 263 261
20 283 275 286 292 308 317 325 323 311 296 293 297 296 295 298 300 302 304 306 307 306 306 305 303 302 301 299 298 297 296 294 292 290 288 285 282 279 275 271 267 263 260 257
17 305 306 303 302 307 310 312 313 309 303 301 303 303 304 305 305 306 308 310 310 310 309 307 306 305 303 301 299 297 296 293 291 288 286 283 280 277 273 269 265 261 257 254
352 322 314 312 312 310 312 312 313 310 309 308 308 306 306 308 309 312 314 315 315 314 313 312 311 309 307 306 304 303 301 300 297 294 290 285 281 277 273 269 265 261 257 253
344 332 325 322 315 316 314 314 315 316 313 312 312 312 314 313 315 317 318 318 318 317 317 316 316 315 314 314 314 313 312 311 309 306 302 297 291 284 277 271 266 262 258 255
342 336 330 325 321 318 315 314 315 316 316 316 318 320 319 319 320 321 321 321 321 321 321 320 320 320 319 319 319 319 318 317 315 312 309 306 301 295 288 280 272 265 260 255
344 339 333 329 325 322 319 319 318 319 320 321 322 323 323 322 323 323 323 324 324 324 323 323 322 321 320 319 319 319 318 317 316 314 311 309 305 300 294 287 278 270 264 257
346 344 341 339 336 331 326 322 321 323 326 327 326 325 325 325 326 326 326 326 326 324 323 322 321 320 319 318 319 319 319 317 315 313 311 309 305 300 295 289 282 275 267 261
348 351 349 346 340 332 326 323 326 330 330 329 328 327 328 328 328 327 326 326 326 325 323 322 321 320 320 320 320 320 319 317 315 313 311 308 305 301 295 289 282 274 267 261
345 347 346 342 338 334 332 332 334 335 333 331 332 332 333 331 330 329 328 329 328 327 325 324 322 321 321 321 321 320 319 317 316 313 311 308 305 301 295 289 280 271 263 257
334 334 335 335 335 335 334 335 337 338 335 334 335 336 336 335 333 332 332 332 331 330 328 327 324 323 322 323 323 322 321 319 317 314 312 309 305 302 297 290 280 269 260 253
323 322 324 326 329 331 333 337 338 339 337 338 338 339 339 338 336 333 334 334 334 333 331 328 326 325 325 326 326 325 323 322 319 317 315 311 307 303 298 290 282 271 259 251
313 312 316 322 328 334 336 337 339 340 339 340 339 340 340 341 340 336 336 336 335 334 332 329 327 327 328 329 328 327 326 325 323 320 318 315 311 305 300 291 282 272 261 250
313 314 318 325 331 335 336 336 337 339 341 340 340 341 342 342 342 339 337 337 336 335 335 332 330 330 330 331 331 330 329 328 327 325 322 320 315 310 303 294 282 272 261 251
315 318 322 326 331 333 334 334 335 337 339 339 341 342 342 342 342 342 341 340 341 339 338 335 332 331 331 332 333 332 333 332 331 329 328 326 323 317 311 301 286 272 260 249
319 321 322 324 328 331 331 332 335 336 337 338 340 342 343 343 343 344 344 344 343 342 339 336 333 332 333 334 335 336 337 337 335 335 334 333 331 325 317 307 292 276 260 246
320 319 319 323 328 329 329 331 333 333 333 335 338 340 342 344 344 345 345 345 345 343 340 337 334 334 335 337 338 340 341 341 341 341 340 339 337 333 326 317 300 282 265 246
314 314 316 322 326 326 328 330 331 331 332 334 337 339 342 344 345 347 347 347 346 344 341 338 336 336 337 339 341 343 345 346 347 347 346 346 345 343 337 330 317 294 272 250
308 310 315 320 323 324 326 328 330 331 332 334 336 339 343 345 346 348 348 347 346 345 344 341 339 338 340 342 344 346 349 350 351 352 352 353 354 353 351 346 337 320 288 256
304 310 315 318 321 324 326 328 330 332 333 334 336 339 342 345 347 347 348 347 346 347 346 344 342 341 343 345 347 350 352 353 354 355 356 357 359 1 1 0 357 349 323 269
302 309 314 318 321 324 326 328 330 331 332 334 336 339 342 344 346 347 347 347 347 347 347 346 344 344 345 348 350 352 354 356 358 359 360 1 4 6 8 9 11 14 11 347